Back to catalog

DELTA 1 DEB

AlivePO
NORAD 21386·DEBRIS·🇺🇸 United States

Launched Jun 12, 1975 from Vandenberg Space Force Base

Loading…

Next Passes (next 24 hours)

TLE

FreshSource: Space-Track

Epoch: Sep 14, 2026, 14:15 UTC

1 21386U 75052DG  26257.59380252  .00000231  00000-0  53726-3 0  9997
2 21386  99.5593 296.9861 0179211   1.8556 151.7054 13.29353098704714

Track DELTA 1 DEB in real time with AllMySat

Download on the App Store